User: anonymous   Login
Location: Unspecified
(0.0000°N, 0.0000°E)
Time: 08:56:48
(UTC+00:00)
Language:

KUIPER-00138 - Orbit

View from above orbital plane
View from above orbital plane
View from above satellite
View from above satellite

Ground track
Ground track

The orbit is defined by the following mean orbital elements,

1 65964U          26145.32683392 +.00000000 +00000-0 +17263-3 0 00009
2 65964  51.9009   4.1916 0000670 114.5514 245.5518 14.79933662    01
Epoch (UTC): 25 May 2026 07:50:38
Eccentricity: 0.0000670
inclination: 51.9009°
perigee height: 629 km
apogee height: 630 km
right ascension of ascending node: 4.1916°
argument of perigee: 114.5514°
revolutions per day: 14.79933662
mean anomaly at epoch: 245.5518°

The dashed part of the orbit path shows where the satellite is in the earth's shadow,  

DLR